Regional Weather Roundup
Issued by NWS Charleston, WV

Home | Current Version | Previous Version | Graphics & Text | Print | Product List | Glossary On
Versions: 1 2 3 4 5 6 7 8 9 10 11 12 13 14 15 16 17 18 19 20 21 22 23 24 25 26 27
845
ASUS41 KRLX 212310
RWRRLX
West Virginia Regional Weather Roundup
National Weather Service Charleston WV
700 PM EDT THU MAY 21 2015

Note: "fair" indicates few or no clouds below 12,000 feet with no
significant weather and/or obstructions to visibility.

WVZ003-220000-
Northern Panhandle of West Virginia

CITY           SKY/WX    TMP DP  RH WIND       PRES   REMARKS
WHEELING         N/A     52  43  71 W6        29.99R
$$

WVZ009-220000-
Northwest West Virginia

CITY           SKY/WX    TMP DP  RH WIND       PRES   REMARKS
PARKERSBURG    CLOUDY    55  45  68 W5        30.04S
$$

WVZ006-220000-
Western West Virginia

CITY           SKY/WX    TMP DP  RH WIND       PRES   REMARKS
HUNTINGTON     CLOUDY    53  48  83 VRB7      30.05R
$$

WVZ015-220000-
West Central West Virginia

CITY           SKY/WX    TMP DP  RH WIND       PRES   REMARKS
CHARLESTON     CLOUDY    52  50  93 W5        30.03R FOG
$$

WVZ022-031-220000-
North Central West Virginia

CITY           SKY/WX    TMP DP  RH WIND       PRES   REMARKS
CLARKSBURG     LGT RAIN  51  48  89 NW6       29.99R
MORGANTOWN     CLOUDY    52  45  77 NW3       29.99R
$$

WVZ025-035-042-045-220000-
Southern West Virginia

CITY           SKY/WX    TMP DP  RH WIND       PRES   REMARKS
BECKLEY        CLOUDY    49  46  90 NW10      30.01R
LOGAN          PTSUNNY   50  48  93 VRB7G13   30.00S FOG
BLUEFIELD      LGT RAIN  53  48  83 NW12      30.00R
LEWISBURG      CLOUDY    56  48  74 W8        29.96S
$$

WVZ047-220000-
Northern Mountains of West Virginia

CITY           SKY/WX    TMP DP  RH WIND       PRES   REMARKS
ELKINS         LGT RAIN  50  46  86 VRB3      29.98S FOG
$$

WVZ052-220000-
Eastern Panhandle of West Virginia

CITY           SKY/WX    TMP DP  RH WIND       PRES   REMARKS
MARTINSBURG    CLOUDY    55  49  80 CALM      29.93R
PETERSBURG     LGT RAIN  54  50  86 N3        29.94R
$$



USA.gov is the U.S. government's official web portal to all federal, state and local government web resources and services.